#timestamp,LO_Frequency,Hit,StdDev 
1708606815.9,286047000.3,N
1708606835.7,286047000.3,N
1708606855.6,286047000.5,N
1708606875.4,286047000.7,N
1708606895.2,286047000.4,N
1708606915.1,286047000.9,N
1708606916.0,286047000.9,N
1708606935.8,286047000.6,N
1708606955.7,286047000.3,N
1708606975.5,286047000.5,N
1708606995.3,286047000.4,N
1708607015.2,286046999.9,N
1708607035.0,286047001.2,N
1708607035.9,286047001.2,N
1708607055.7,286046999.9,N
1708607075.6,286047001.0,N
1708607095.4,286047000.8,N
1708607115.3,286047000.5,N
1708607135.1,286047000.9,N
1708607136.0,286047000.9,N
1708607155.8,286047001.1,N
1708607175.7,286047000.5,N
1708607195.5,286047001.2,N
1708607215.3,286047001.0,N
1708607235.2,286047001.0,N
1708607255.0,286046999.9,N
1708607255.9,286046999.9,N
1708607275.8,286047000.4,N
1708607295.6,286047000.4,N
1708607315.4,286047000.2,N
1708607335.3,286047000.0,N
1708607355.1,286047000.0,N
1708607375.9,286047000.2,N
1708607395.7,286047001.2,N
1708607415.5,286046998.1,Y
1708607435.4,286046998.5,P
1708607455.2,286047000.7,N
1708607475.0,286047000.8,N
1708607475.9,286047000.8,N
1708607495.8,286046999.7,N
1708607515.6,286047002.8,Y
1708607535.5,286047002.7,P
1708607555.3,286047002.5,N
1708607575.1,286047002.4,N
1708607595.9,286047001.8,N
1708607615.7,286047001.7,N
1708607635.6,286047001.6,N
1708607655.4,286047001.9,N
1708607675.2,286047003.9,Y
1708607695.1,286047002.2,P
1708607696.0,286047002.2,P
1708607715.8,286047002.1,P
1708607735.6,286047002.1,Y
1708607755.5,286046998.3,P
1708607775.3,286046999.0,N
1708607795.2,286046999.4,N
1708607815.9,286046998.4,N
1708607835.7,286046999.4,N
1708607855.6,286046996.6,N
1708607875.4,286046999.5,N
1708607895.3,286046998.7,N
1708607915.1,286046999.0,N
1708607916.0,286046999.0,N
1708607935.8,286046999.2,N
1708607955.7,286046998.9,N
1708607975.5,286046999.3,N
1708607995.3,286046999.1,N
1708608015.2,286046999.4,N
1708608035.0,286046996.5,Y
1708608035.9,286046996.5,P
1708608055.8,286046999.4,N
1708608075.6,286046996.5,N
1708608095.4,286046996.7,N
1708608115.3,286046997.1,N
1708608135.1,286046997.7,N
1708608155.9,286046997.0,N
1708608175.7,286046997.6,N
1708608195.5,286046997.5,N
1708608215.4,286046997.5,N
1708608235.2,286046997.2,Y
1708608255.0,286047000.7,P
1708608255.9,286047000.7,N
1708608275.8,286047001.1,N
1708608295.6,286047000.7,N
1708608315.5,286046998.3,N
1708608335.3,286046999.0,N
1708608355.1,286046998.8,N
1708608375.9,286046998.9,N
1708608395.7,286046999.0,N
1708608415.5,286046998.3,N
1708608435.4,286047001.2,N
1708608455.2,286046998.6,N
1708608475.1,286046998.8,N
1708608476.0,286046998.8,N
1708608495.8,286046998.9,N
1708608515.6,286046999.4,N
1708608535.5,286046998.6,N
1708608555.3,286046998.7,N
1708608575.1,286046998.5,N
1708608595.9,286046998.1,N
1708608615.7,286046999.0,N
1708608635.6,286046998.8,N
1708608655.4,286046999.1,N
1708608675.2,286046998.8,N
1708608695.1,286046999.4,N
1708608696.0,286046999.4,N
1708608715.8,286046999.3,N
1708608735.6,286046996.5,Y
1708608755.5,286046999.3,P
1708608775.3,286046998.3,P
1708608795.2,286046999.3,N
1708608815.9,286046998.9,N
1708608835.7,286046999.0,N
1708608855.6,286046999.1,N
1708608875.4,286046999.5,N
1708608895.2,286046999.3,N
1708608915.1,286046999.5,N
1708608916.0,286046999.5,N
1708608935.8,286046999.0,Y
1708608955.7,286046998.1,P
1708608975.5,286047001.2,N
1708608995.3,286046998.2,N
1708609015.2,286046998.2,N
1708609035.0,286046998.3,N
1708609035.9,286046998.3,N
1708609055.8,286046998.8,N
1708609075.6,286046998.4,N
1708609095.4,286046998.9,N
1708609115.3,286046999.0,N
1708609135.1,286046999.5,N
1708609155.8,286046998.6,N
1708609175.7,286046998.5,N
1708609195.5,286046998.5,N
1708609215.4,286046999.3,N
1708609235.2,286046998.2,N
1708609255.0,286046998.5,N
1708609255.9,286046998.5,N
1708609275.8,286046998.3,N
1708609295.6,286047001.2,N
1708609315.4,286047000.9,N
1708609335.3,286047000.5,N
1708609355.1,286047001.2,N
1708609375.9,286047000.5,N
1708609395.7,286047001.1,N
1708609415.5,286046998.1,N
1708609435.4,286047001.0,N
1708609455.2,286047000.6,N
1708609475.0,286047001.0,N
1708609475.9,286047001.0,N
1708609495.8,286046998.5,N
1708609515.6,286047001.0,N
1708609535.5,286047000.9,N
1708609555.3,286047000.7,N
1708609575.1,286047000.8,N
1708609595.9,286047001.1,N
1708609615.7,286047000.7,N
1708609635.5,286046998.1,N
1708609655.4,286047001.2,N
1708609675.2,286047001.0,N
1708609695.1,286047001.2,N
1708609696.0,286047001.2,N
1708609715.8,286047000.8,N
1708609735.6,286047001.0,N
1708609755.5,286047000.3,N
1708609775.3,286047000.4,N
1708609795.2,286047000.9,N
1708609815.9,286047001.0,N
1708609835.7,286047001.2,N
1708609855.6,286047000.1,N
1708609875.4,286047000.4,N
1708609895.2,286047000.2,N
1708609915.1,286047000.2,N
1708609916.0,286047000.2,N
1708609935.8,286047000.1,N
1708609955.7,286047002.5,N
1708609975.5,286047002.7,Y
1708609995.3,286047000.0,P
1708610015.2,286047000.4,N
1708610035.0,286047000.8,N
1708610035.9,286047000.8,N
1708610055.8,286046998.3,Y
1708610075.6,286046998.1,P
1708610095.4,286046998.1,N
1708610115.3,286047000.4,N
1708610135.1,286047000.6,N
1708610155.8,286047000.9,N
1708610175.7,286047000.2,N
1708610195.5,286047000.1,N
1708610215.4,286046999.9,N
1708610235.2,286047002.3,N
1708610255.0,286047000.3,N
1708610255.9,286047000.3,N
1708610275.8,286046999.8,N
1708610295.6,286047000.2,N
1708610315.4,286047000.5,N
1708610335.3,286047000.6,N
1708610355.1,286047000.6,N
1708610375.9,286047000.6,N
1708610395.7,286047000.6,N
